When you browse on this site, cookies collect data to enhance your experience and personalize the content and advertising you see.
Visit our Privacy Policy to learn more. By continuing to use the site, you agree to this use of cookies and data.
  • In Netherlands
  • List of Countries
  • For 7 days
  • Water Temperature
  • Weather Map
  • Weather Widgets
  • user-avatar
    Login

    Hourly Weather Fier

    Today, 20 February, Thursday

    Time Temperature Precipitation Wind Pressure Humidity
    00:00 +10°C° 1 mm 2 mps 759 mmHg 91%
    01:00 +10°C° 0 mm 3 mps 759 mmHg 89%
    02:00 +10°C° 1.4 mm 2 mps 759 mmHg 89%
    03:00 +10°C° 1.4 mm 2 mps 759 mmHg 90%
    04:00 +11°C° 1.4 mm 1 mps 758 mmHg 91%
    05:00 +10°C° 1.1 mm 2 mps 758 mmHg 91%
    06:00 +10°C° 1.1 mm 2 mps 758 mmHg 91%
    07:00 +9°C° 0 mm 3 mps 759 mmHg 93%
    08:00 +10°C° 0.8 mm 3 mps 759 mmHg 88%
    09:00 +10°C° 0.8 mm 4 mps 759 mmHg 82%
    10:00 +11°C° 0.8 mm 4 mps 759 mmHg 77%
    11:00 +10°C° 0.1 mm 5 mps 759 mmHg 74%
    12:00 +12°C° 0.1 mm 5 mps 759 mmHg 70%
    13:00 +11°C° 0.1 mm 6 mps 759 mmHg 66%
    14:00 +11°C° 0.2 mm 6 mps 760 mmHg 64%
    15:00 +11°C° 0.2 mm 6 mps 760 mmHg 62%
    16:00 +11°C° 0.2 mm 6 mps 760 mmHg 60%
    17:00 +10°C° 0 mm 6 mps 761 mmHg 63%
    18:00 +9°C° 0 mm 6 mps 761 mmHg 66%
    19:00 +8°C° 0 mm 5 mps 762 mmHg 69%
    20:00 +8°C° 0 mm 5 mps 762 mmHg 70%
    21:00 +7°C° 0 mm 5 mps 763 mmHg 70%
    22:00 +7°C° 0 mm 5 mps 763 mmHg 70%
    23:00 +6°C° 0 mm 4 mps 763 mmHg 70%

    Tomorrow, 21 February, Friday

    Time Temperature Precipitation Wind Pressure Humidity
    00:00 +6°C° 0 mm 4 mps 763 mmHg 70%
    01:00 +6°C° 0 mm 4 mps 764 mmHg 70%
    02:00 +5°C° 0 mm 4 mps 764 mmHg 69%
    03:00 +5°C° 0 mm 3 mps 764 mmHg 68%
    04:00 +4°C° 0 mm 3 mps 764 mmHg 68%
    05:00 +4°C° 0 mm 3 mps 764 mmHg 67%
    06:00 +4°C° 0 mm 3 mps 765 mmHg 67%
    07:00 +4°C° 0 mm 3 mps 765 mmHg 66%
    14:00 +13°C° 0 mm 4 mps 765 mmHg 39%
    15:00 +12°C° 0 mm 4 mps 765 mmHg 43%
    16:00 +12°C° 0 mm 4 mps 765 mmHg 47%
    17:00 +11°C° 0 mm 4 mps 765 mmHg 52%
    18:00 +9°C° 0 mm 3 mps 766 mmHg 57%
    19:00 +8°C° 0 mm 3 mps 766 mmHg 61%
    20:00 +8°C° 0 mm 3 mps 767 mmHg 61%
    21:00 +8°C° 0 mm 2 mps 767 mmHg 61%
    22:00 +7°C° 0 mm 2 mps 767 mmHg 61%
    23:00 +7°C° 0 mm 2 mps 767 mmHg 61%

    Day after tomorrow, 22 February, Saturday

    Time Temperature Precipitation Wind Pressure Humidity
    00:00 +7°C° 0 mm 2 mps 767 mmHg 60%
    01:00 +6°C° 0 mm 2 mps 767 mmHg 60%
    02:00 +6°C° 0 mm 2 mps 767 mmHg 59%
    03:00 +6°C° 0 mm 2 mps 767 mmHg 59%
    04:00 +6°C° 0 mm 2 mps 767 mmHg 58%
    05:00 +6°C° 0 mm 2 mps 767 mmHg 58%
    06:00 +6°C° 0 mm 2 mps 767 mmHg 58%
    07:00 +6°C° 0 mm 2 mps 768 mmHg 58%
    08:00 +8°C° 0 mm 3 mps 768 mmHg 54%
    09:00 +9°C° 0 mm 3 mps 768 mmHg 50%
    10:00 +11°C° 0 mm 4 mps 768 mmHg 46%
    11:00 +12°C° 0 mm 4 mps 768 mmHg 41%
    12:00 +12°C° 0 mm 5 mps 769 mmHg 36%
    13:00 +13°C° 0 mm 6 mps 769 mmHg 31%
    14:00 +13°C° 0 mm 5 mps 769 mmHg 34%
    15:00 +13°C° 0 mm 5 mps 769 mmHg 37%
    16:00 +12°C° 0 mm 5 mps 769 mmHg 39%
    17:00 +10°C° 0 mm 5 mps 769 mmHg 43%
    18:00 +10°C° 0 mm 4 mps 770 mmHg 46%
    19:00 +7°C° 0 mm 4 mps 770 mmHg 49%
    20:00 +7°C° 0 mm 4 mps 771 mmHg 50%
    21:00 +7°C° 0 mm 3 mps 771 mmHg 50%
    22:00 +7°C° 0 mm 3 mps 771 mmHg 51%
    23:00 +7°C° 0 mm 2 mps 771 mmHg 52%

    23 February, Sunday

    Time Temperature Precipitation Wind Pressure Humidity
    00:00 +6°C° 0 mm 2 mps 771 mmHg 52%
    01:00 +6°C° 0 mm 2 mps 771 mmHg 53%
    02:00 +6°C° 0 mm 2 mps 771 mmHg 53%
    03:00 +6°C° 0 mm 2 mps 770 mmHg 53%
    04:00 +5°C° 0 mm 2 mps 770 mmHg 53%
    05:00 +6°C° 0 mm 2 mps 770 mmHg 54%
    06:00 +6°C° 0 mm 2 mps 770 mmHg 54%
    07:00 +6°C° 0 mm 2 mps 770 mmHg 55%
    08:00 +8°C° 0 mm 2 mps 770 mmHg 49%
    09:00 +10°C° 0 mm 1 mps 770 mmHg 44%
    10:00 +12°C° 0 mm 1 mps 770 mmHg 39%
    11:00 +13°C° 0 mm 2 mps 769 mmHg 38%
    12:00 +14°C° 0 mm 2 mps 769 mmHg 37%
    13:00 +15°C° 0 mm 2 mps 768 mmHg 37%
    14:00 +14°C° 0 mm 2 mps 768 mmHg 41%
    15:00 +14°C° 0 mm 2 mps 768 mmHg 46%
    16:00 +13°C° 0 mm 2 mps 767 mmHg 50%
    17:00 +12°C° 0 mm 2 mps 768 mmHg 54%
    18:00 +11°C° 0 mm 1 mps 768 mmHg 58%
    19:00 +10°C° 0 mm 1 mps 768 mmHg 62%
    20:00 +10°C° 0 mm 1 mps 768 mmHg 62%
    21:00 +10°C° 0 mm 1 mps 768 mmHg 61%
    22:00 +9°C° 0 mm 1 mps 768 mmHg 60%
    23:00 +9°C° 0 mm 1 mps 768 mmHg 59%

    24 February, Monday

    Time Temperature Precipitation Wind Pressure Humidity
    00:00 +9°C° 0 mm 1 mps 768 mmHg 58%
    01:00 +9°C° 0 mm 1 mps 768 mmHg 57%
    02:00 +9°C° 0 mm 1 mps 767 mmHg 57%
    03:00 +9°C° 0 mm 1 mps 767 mmHg 58%
    04:00 +8°C° 0 mm 1 mps 767 mmHg 59%
    05:00 +9°C° 0 mm 1 mps 766 mmHg 58%
    06:00 +9°C° 0 mm 1 mps 766 mmHg 58%
    07:00 +9°C° 0 mm 1 mps 766 mmHg 58%
    08:00 +11°C° 0 mm 1 mps 766 mmHg 55%
    09:00 +13°C° 0 mm 2 mps 766 mmHg 51%
    10:00 +14°C° 0 mm 2 mps 766 mmHg 47%
    11:00 +15°C° 0 mm 2 mps 765 mmHg 50%
    12:00 +16°C° 0 mm 2 mps 765 mmHg 52%
    13:00 +16°C° 0 mm 3 mps 764 mmHg 54%
    14:00 +16°C° 0 mm 3 mps 764 mmHg 58%
    15:00 +16°C° 0 mm 3 mps 764 mmHg 62%
    16:00 +14°C° 0 mm 3 mps 764 mmHg 66%
    17:00 +13°C° 0 mm 3 mps 764 mmHg 71%
    18:00 +13°C° 0 mm 2 mps 765 mmHg 77%
    19:00 +10°C° 0 mm 2 mps 765 mmHg 82%
    20:00 +10°C° 0 mm 2 mps 765 mmHg 83%
    21:00 +10°C° 0 mm 2 mps 765 mmHg 83%
    22:00 +10°C° 0 mm 2 mps 765 mmHg 84%
    23:00 +9°C° 0 mm 2 mps 765 mmHg 83%

    25 February, Tuesday

    Time Temperature Precipitation Wind Pressure Humidity
    00:00 +10°C° 0 mm 1 mps 765 mmHg 83%
    01:00 +10°C° 0 mm 1 mps 765 mmHg 82%
    02:00 +10°C° 0 mm 1 mps 765 mmHg 81%
    03:00 +10°C° 0 mm 1 mps 764 mmHg 79%
    04:00 +10°C° 0 mm 1 mps 764 mmHg 78%
    05:00 +10°C° 0 mm 1 mps 764 mmHg 76%
    06:00 +11°C° 0 mm 1 mps 764 mmHg 75%
    07:00 +10°C° 0 mm 0 mps 764 mmHg 73%
    08:00 +11°C° 0 mm 0 mps 763 mmHg 69%
    09:00 +14°C° 0 mm 1 mps 763 mmHg 64%
    10:00 +16°C° 0 mm 1 mps 763 mmHg 60%
    11:00 +16°C° 0 mm 2 mps 763 mmHg 61%
    12:00 +17°C° 0 mm 3 mps 763 mmHg 62%
    13:00 +17°C° 0 mm 3 mps 762 mmHg 64%
    14:00 +17°C° 0 mm 4 mps 762 mmHg 66%
    15:00 +17°C° 0 mm 4 mps 762 mmHg 69%
    16:00 +15°C° 0 mm 4 mps 761 mmHg 71%
    17:00 +14°C° 0 mm 4 mps 761 mmHg 76%
    18:00 +13°C° 0 mm 4 mps 761 mmHg 81%
    19:00 +12°C° 0 mm 4 mps 761 mmHg 85%
    20:00 +12°C° 0 mm 4 mps 761 mmHg 86%
    21:00 +12°C° 0 mm 4 mps 761 mmHg 87%
    22:00 +11°C° 0 mm 3 mps 761 mmHg 88%
    23:00 +11°C° 0 mm 3 mps 761 mmHg 87%
    Show more